Regional Weather Roundup
Issued by NWS

Home | Current Version | Previous Version | Text Only | Print | Product List | Glossary Off
Versions: 1 2 3 4 5 6 7 8 9 10 11 12 13 14 15 16 17 18 19 20 21 22 23 24 25 26 27 28 29 30 31 32 33 34 35 36 37 38 39 40 41 42 43 44 45 46 47 48 49 50

000
ASUS43 KMPX 310701
RWRMN
WEATHER ROUNDUP FOR MINNESOTA
NATIONAL WEATHER SERVICE TWIN CITIES/CHANHASSEN MN
200 AM CDT FRI JUL 31 2015


NOTE: "FAIR" INDICATES FEW OR NO CLOUDS BELOW 12,000 FEET WITH NO
SIGNIFICANT WEATHER AND/OR OBSTRUCTIONS TO VISIBILITY. N/A MEANS
CURRENT SKY AND/OR WEATHER CONDITIONS ARE NOT AVAILABLE.

MNZ060>063-068>070-310800-
   Twin Cities Metro

CITY           SKY/WX    TMP DP  RH WIND       PRES   REMARKS
TWIN CITIES    CLEAR     72  59  63 W7        30.02S
ST PAUL        CLEAR     71  59  65 W8        30.01F
CRYSTAL        CLEAR     71  59  65 W8        30.00F
BLAINE         CLEAR     72  61  68 W7        30.01F
LAKEVILLE      CLEAR     63  61  94 CALM      30.04S
EDEN PRAIRIE   CLEAR     69  62  78 W6        30.02F
SOUTH ST PAUL  CLEAR     70  60  71 W7        30.01F
LAKE ELMO      FAIR      66  59  77 W5        30.02F
$$
MNZ001>005-007-008-013>017-022>024-027-028-310800-
   Northwest Minnesota

CITY           SKY/WX    TMP DP  RH WIND       PRES   REMARKS
BEMIDJI        CLEAR     61  49  65 W9        30.00S
HALLOCK        CLEAR     55  52  88 W3        29.99S
ROSEAU         CLEAR     61  54  77 W8        29.96S
WARROAD        MOCLDY    59  55  88 W7        29.95S
THIEF RVR FALL CLEAR     57  50  77 W8        30.00S
CROOKSTON      CLEAR     57  52  82 W7        30.02S
FOSSTON        CLEAR     59  48  67 W10       30.02S
DETROIT LAKES  CLEAR     63  52  67 NW8       30.06S
MOORHEAD       CLEAR     59  54  82 W7        30.06S
PARK RAPIDS    CLEAR     59  50  72 W8        30.02S
MAHNOMEN       FAIR      56  52  84 W7        30.03S
$$
MNZ006-009>011-018-025>026-310800-
   North Central Minnesota

CITY           SKY/WX    TMP DP  RH WIND       PRES   REMARKS
BAUDETTE       CLEAR     58  53  84 W6        29.93S
FLAG ISLAND    CLEAR     61  55  82 W13       29.90S
INTL FALLS     PTCLDY    58  56  93 W7        29.90R
WASKISH        CLEAR     64  55  72 W14G22    29.95S
BIG FORK       CLEAR     57  54  88 W3        29.94F
LONGVILLE      CLEAR     64  52  63 W6        29.99S
GRAND RAPIDS   CLEAR     66  50  55 NW13G20   29.96S
CRANE LAKE     CLEAR     52  52 100 S3        29.90F
ORR            CLEAR     57  54  88 CALM      29.88F
COOK           PTCLDY    61  55  82 W7        29.92F
WALKER         FAIR      61  50  67 W6        30.00S
$$
MNZ012-019>021-037-310800-
   Northeast Minnesota

CITY           SKY/WX    TMP DP  RH WIND       PRES   REMARKS
DULUTH         MOCLDY    66  54  65 W9        29.93R
ELY            PTCLDY    57  54  88 W5        29.90S
HIBBING        PTCLDY    59  53  80 W5        29.93F
EVELETH        PTCLDY    59  54  82 W3        29.93S
DULUTH HARBOR  CLOUDY    68  59  73 W8        29.91S
TWO HARBORS    CLEAR     63  57  82 W6        29.89S
SILVER BAY     PTCLDY    63  54  72 CALM      29.87F
GRAND MARAIS     N/A     64  53  67 VRB3      29.82F
G MARAIS ARPRT   N/A     55  52  88 W5        29.87F
$$
MNZ029>031-032-039>041-046>048-054>057-064-310800-
   West Central Minnesota

CITY           SKY/WX    TMP DP  RH WIND       PRES   REMARKS
FERGUS FALLS   CLEAR     59  54  82 W3        30.07S
WHEATON        CLEAR     61  55  82 W5        30.10S
MORRIS         CLEAR     61  57  88 NW6       30.08R
ALEXANDRIA     CLEAR     61  56  83 W3        30.08F
ELBOW LAKE     FAIR      60  56  88 W3        30.07S
WADENA         CLEAR     61  52  72 W6        30.04S
GLENWOOD       CLEAR     63  57  82 W6        30.08S
APPLETON       CLEAR     61  57  88 W7        30.09R
BENSON         CLEAR     61  55  82 N5        30.08S
ORTONVILLE     CLEAR     64  55  72 W5        30.09S
MADISON        CLEAR     61  55  82 W7        30.10S
WILLMAR        FAIR      61  57  88 W6        30.09R
$$
MNZ033>034-036-042>043-049>051-058-059-310800-
   Central Minnesota

CITY           SKY/WX    TMP DP  RH WIND       PRES   REMARKS
ST CLOUD       CLEAR     68  57  68 NW12      30.03R
SAUK CENTRE    FAIR      60  56  89 CALM      30.07S
PAYNESVILLE    CLEAR     56  55  99 SW3       30.07S
AITKIN         CLEAR     64  55  72 W5        29.98S
PINE RIVER     CLEAR     63  54  72 W3        30.04S
BRAINERD       CLEAR     67  52  58 W10       30.02R
STAPLES        CLEAR     57  52  82 W7        30.04S
LONG PRAIRIE   FAIR      63  54  72 W5        30.07S
LITTLE FALLS   CLEAR     63  54  72 NW3       30.04S
LITCHFIELD     CLEAR     66  63  88 W5        30.06S
BUFFALO        CLEAR     67  60  78 SW5       30.04S
MAPLE LAKE     CLEAR     66  61  82 W3        30.05S
$$
MNZ037-044-045-052-053-310800-
   East Central Minnesota

CITY           SKY/WX    TMP DP  RH WIND       PRES   REMARKS
PRINCETON      CLEAR     66  59  77 W7        30.02S
MORA           CLEAR     64  55  72 W8        30.01S
CAMBRIDGE      CLEAR     70  55  60 W5        29.99S
RUSH CITY      PTCLDY    66  57  72 W8        29.99S
MOOSE LAKE     PTCLDY    64  54  68 W6        29.95R
HINCKLEY       FAIR      63  57  82 W6        29.98S
CLOQUET        MOCLDY    66  52  59 W9        29.94S
MCGREGOR       CLEAR     66  54  63 W6        29.98S
$$
MNZ071>073-080-081-089-090-097-098-310800-
   Southwest Minnesota

CITY           SKY/WX    TMP DP  RH WIND       PRES   REMARKS
MONTEVIDEO     CLEAR     64  57  77 W5        30.11R
GRANITE FALLS  CLEAR     61  59  92 SW7       30.11R
CANBY          CLEAR     64  56  74 W7        30.12S
MARSHALL       CLEAR     63  55  77 W7        30.12S
REDWOOD FALLS  CLEAR     67  60  78 W8        30.08S
OLIVIA         CLEAR     57  54  88 W5        30.07S
PIPESTONE      CLEAR     63  59  88 CALM      30.15S
WINDOM         CLEAR     63  59  88 W5        30.12S
WORTHINGTON    CLEAR     64  55  72 NW5       30.14S
JACKSON        CLEAR     64  61  88 W6        30.13S
TRACY          CLEAR     64  61  88 W7        30.12S
SLAYTON        CLEAR     65  59  83 CALM      30.14F
$$
MNZ065>067-074>077-082>085-091>093-310800-
   South Central Minnesota

CITY           SKY/WX    TMP DP  RH WIND       PRES   REMARKS
MANKATO        CLEAR     66  59  77 W6        30.07S
NEW ULM        CLEAR     61  61 100 W3        30.08S
ST JAMES       CLEAR     66  63  88 W5        30.10S
FAIRMONT       CLEAR     70  57  64 NW7       30.10R
GLENCOE        CLEAR     66  62  87 SW3       30.05F
FARIBAULT      CLEAR     63  61  94 W5        30.06S
OWATONNA       CLEAR     63  59  88 CALM      30.07S
WASECA         PTCLDY    59  57  94 SW5       30.08S
ALBERT LEA     CLEAR     70  63  78 W5        30.08S
$$
MNZ078>079-086>088-094>096-310800-
   Southeast Minnesota

CITY           SKY/WX    TMP DP  RH WIND       PRES   REMARKS
ROCHESTER      CLEAR     65  61  87 W9        30.06S
RED WING       CLEAR     63  61  94 CALM      30.01S
STANTON        CLEAR     65  60  82 CALM      30.03S
DODGE CENTER   CLEAR     63  59  88 W3        30.07R
WINONA         CLEAR     68  63  83 CALM      30.02S
AUSTIN         CLEAR     72  63  73 W10       30.06S
PRESTON        CLEAR     67  60  79 W9        30.06R
$$
ABBREVIATIONS USED IN REMARKS
   TC - TEMPERATURES IN CELSIUS
  WCI - WIND CHILL INDEX
   HX - HEAT INDEX
  VSB - VISIBILITY
$$



USA.gov is the U.S. government's official web portal to all federal, state and local government web resources and services.